Clearfield, PA

8:45 AM EST on November 23, 2017 (GMT -0500)
Clearfield-Lawrence

Weather History for KFIG - November, 2012

Change the Weather History Date:

Friday, November 9, 2012

  Actual Average (KDUJ) Record (KDUJ)
Temperature  
Mean Temperature 42 °F -  
Max Temperature 51 °F 49 °F 70 °F (1975)
Min Temperature 33 °F 33 °F 14 °F (1976)
Degree Days  
Heating Degree Days 23    
Moisture  
Dew Point 31 °F    
Average Humidity 70    
Maximum Humidity 89    
Minimum Humidity 46    
Precipitation  
Precipitation 0.00 in - - ()
Sea Level Pressure  
Sea Level Pressure 30.20 in    
Wind  
Wind Speed 5 mph (WSW)    
Max Wind Speed 8 mph    
Max Gust Speed -    
Visibility 10 miles    
Events      
Averages and records for this station are not official NWS values.
T = Trace of Precipitation, MM = Missing Value Source: NWS Daily Summary

Daily Weather History Graph

Daily Weather History Graph

Search for Another Location

Airport or City:

Trip Planner

Search our weather history database for the weather conditions in past years. The results will help you decide how hot, cold, wet, or windy it might be!

Date:

Astronomy

Nov. 09, 2012 Rise Set
Actual Time 6:54 AM EST 4:59 PM EST
Civil Twilight 6:25 AM EST 5:29 PM EST
Nautical Twilight 5:52 AM EST 6:01 PM EST
Astronomical Twilight 5:20 AM EST 6:34 PM EST
Moon 1:49 AM EST (11/9) 2:14 PM EST (11/9)
Length of Visible Light 11h 03m
Length of Day
10h 05m
Waning Crescent, 23% of the Moon is Illuminated
Nov 9
Waning Crescent
Nov 13
New
Nov 20
First Quarter
Nov 28
Full
Dec 6
Last Quarter

Hourly Weather History & Observations

Time (EST) Temp. Windchill Dew Point Humidity Pressure Visibility Wind Dir Wind Speed Gust Speed Precip Events Conditions
12:54 AM 33.1 °F 30.0 °F 27.0 °F 78% 30.13 in 10.0 mi SW 3.5 mph - N/A   Overcast
1:54 AM 34.0 °F 29.8 °F 27.0 °F 75% 30.14 in 10.0 mi Variable 4.6 mph - N/A   Overcast
2:54 AM 35.1 °F 31.0 °F 28.9 °F 78% 30.14 in 10.0 mi Variable 4.6 mph - N/A   Overcast
3:54 AM 36.0 °F 29.6 °F 30.0 °F 79% 30.15 in 10.0 mi WNW 8.1 mph - N/A   Overcast
4:54 AM 37.0 °F 32.4 °F 30.0 °F 76% 30.17 in 10.0 mi West 5.8 mph - N/A   Overcast
5:54 AM 34.0 °F 31.0 °F 28.9 °F 82% 30.19 in 10.0 mi SW 3.5 mph - N/A   Scattered Clouds
6:26 AM 33.8 °F 29.6 °F 30.2 °F 87% 30.15 in 10.0 mi SW 4.6 mph - N/A   Mostly Cloudy
6:54 AM 34.0 °F 28.8 °F 30.0 °F 85% 30.21 in 10.0 mi SW 5.8 mph - N/A   Overcast
7:54 AM 35.1 °F 31.0 °F 30.9 °F 85% 30.23 in 10.0 mi SW 4.6 mph - N/A   Overcast
8:54 AM 37.0 °F 31.6 °F 30.9 °F 79% 30.25 in 10.0 mi SW 6.9 mph - N/A   Overcast
9:54 AM 42.1 °F 38.4 °F 32.0 °F 67% 30.24 in 10.0 mi West 5.8 mph - N/A   Mostly Cloudy
10:23 AM 42.8 °F 38.0 °F 30.2 °F 61% 30.21 in 10.0 mi WNW 8.1 mph - N/A   Scattered Clouds
10:54 AM 44.1 °F 40.8 °F 30.9 °F 60% 30.25 in 10.0 mi WNW 5.8 mph - N/A   Clear
11:54 AM 46.9 °F - 30.9 °F 54% 30.23 in 10.0 mi West 8.1 mph - N/A   Scattered Clouds
12:54 PM 48.0 °F - 30.9 °F 52% 30.20 in 10.0 mi West 6.9 mph - N/A   Mostly Cloudy
1:54 PM 51.1 °F - 30.9 °F 46% 30.17 in 10.0 mi WSW 8.1 mph - N/A   Clear
2:54 PM 50.0 °F - 32.0 °F 50% 30.18 in 10.0 mi West 8.1 mph - N/A   Partly Cloudy
3:54 PM 48.9 °F - 32.0 °F 52% 30.17 in 10.0 mi West 6.9 mph - N/A   Clear
4:54 PM 46.9 °F - 32.0 °F 56% 30.18 in 9.0 mi WSW 8.1 mph - N/A   Clear
5:54 PM 45.0 °F 43.5 °F 32.0 °F 60% 30.20 in 10.0 mi WSW 3.5 mph - N/A   Scattered Clouds
6:54 PM 44.1 °F 42.5 °F 32.0 °F 63% 30.20 in 10.0 mi WSW 3.5 mph - N/A   Clear
7:54 PM 41.0 °F 39.0 °F 32.0 °F 70% 30.20 in 10.0 mi SW 3.5 mph - N/A   Clear
8:54 PM 39.0 °F 36.8 °F 32.0 °F 76% 30.21 in 9.0 mi SW 3.5 mph - N/A   Clear
9:54 PM 35.1 °F - 30.0 °F 82% 30.23 in 9.0 mi Calm Calm - N/A   Clear
10:54 PM 33.1 °F 28.7 °F 30.0 °F 89% 30.24 in 9.0 mi North 4.6 mph - N/A   Clear
11:54 PM 35.1 °F - 30.9 °F 85% 30.22 in 8.0 mi Calm Calm - N/A   Clear